Powrót do katalogu

STARLINK-31296

AktywnyŁącznośćVLEO
NORAD 58879·PAYLOAD·🇺🇸 United States

Wystrzelony Jan 29, 2024 z Vandenberg Space Force Base

Loading…

Następne Przeloty (najbliższe 24 godziny)

TLE

ŚwieżeSource: CelesTrak SupGP

Epoka: Sep 14, 2026, 20:38 UTC

1 58879C 24020D   26257.86020833 -.00041821  00000+0 -12355-2 0  2579
2 58879  53.1574 135.9672 0001330  87.3707 322.8079 15.34413540    18

Śledź STARLINK-31296 w czasie rzeczywistym z AllMySat

Download on the App Store